sat.trackr.live / text

‹ back to catalog

STARLINK-3717

NORAD 52096 · 2022-029J

PAYLOAD ACTIVE UNKNOWN

§ Identity

Operator
Country
US
Launch date
2022-03-19
Launch site
AFETR
Launch vehicle
Mass (kg)
RCS (m²)

Purposes: comms

External: N2YO · Heavens-Above · Gunter

§ Orbital elements

Epoch: 2026-05-25T03:38:58.122240Z

Period
95.44 min
Inclination
53.2136°
Eccentricity
0.0001499
Mean motion
15.08826792 rev/d
Perigee alt
538.7 km
Apogee alt
540.8 km
Semi-major
6,917.9 km
B*
-3.7765e-5
RAAN
95.8641°
Arg perigee
83.1085°
Mean anomaly
277.0077°
Rev number
23,232

§ Raw data

STARLINK-37171 52096U 22029J   26145.15206160 -.00000889  00000+0 -37765-4 0  99942 52096  53.2136  95.8641 0001499  83.1085 277.0077 15.08826792232325

JSON: /api/v1/satellites/52096 · /tle

For live sub-satellite position, see the globe view (requires WebGL).

§ Visibility from observer

Set your observer location to see the next 7 days of passes ≥ 10°. The values pass through the URL so the page stays shareable.

No JS? Fill the form by hand. The geolocation button needs JavaScript.